User: anonymous   Login
Location: Chinna Viriv?da
(16.5281°N, 81.0493°E)
Time: 16:44:00
(UTC+00:00)
Language:

Cosmos 2082 - Orbit

View from above orbital plane
View from above orbital plane
View from above satellite
View from above satellite

Ground track
Ground track

The orbit is defined by the following mean orbital elements,

1 20624U          26156.48006096 +.00000000 +00000-0 -41361-4 0 00000
2 20624  71.0398 196.7645 0012615  65.9022 294.3419 14.14846614    02
Epoch (UTC): 05 June 2026 11:31:17
Eccentricity: 0.0012615
inclination: 71.0398°
perigee height: 834 km
apogee height: 852 km
right ascension of ascending node: 196.7645°
argument of perigee: 65.9022°
revolutions per day: 14.14846614
mean anomaly at epoch: 294.3419°

The dashed part of the orbit path shows where the satellite is in the earth's shadow,  

DLR